When you browse on this site, cookies collect data to enhance your experience and personalize the content and advertising you see.
Visit our Privacy Policy to learn more. By continuing to use the site, you agree to this use of cookies and data.
  • In Hungary
  • List of Countries
  • For 7 days
  • Water Temperature
  • Weather Map
  • News
  • Weather Widgets
  • user-avatar
    Login

    Hourly Weather Titiribi

    Today, 11 December, Wednesday

    Time Temperature Precipitation Wind Pressure Humidity
    00:00 +15°C° 0.1 mm 0 mps 617 mmHg 97%
    01:00 +14°C° 0.1 mm 0 mps 616 mmHg 97%
    02:00 +14°C° 0.1 mm 0 mps 616 mmHg 97%
    03:00 +14°C° 0.1 mm 0 mps 616 mmHg 97%
    04:00 +14°C° 0.1 mm 0 mps 616 mmHg 98%
    05:00 +14°C° 0 mm 0 mps 616 mmHg 97%
    06:00 +15°C° 0 mm 0 mps 617 mmHg 97%
    07:00 +15°C° 0 mm 0 mps 618 mmHg 96%
    08:00 +16°C° 0.1 mm 0 mps 618 mmHg 91%
    09:00 +18°C° 0.1 mm 0 mps 619 mmHg 86%
    10:00 +19°C° 0.1 mm 0 mps 620 mmHg 81%
    11:00 +20°C° 0.7 mm 0 mps 619 mmHg 78%
    12:00 +21°C° 0.7 mm 0 mps 619 mmHg 75%
    13:00 +22°C° 0.7 mm 0 mps 619 mmHg 72%
    14:00 +23°C° 1.1 mm 1 mps 618 mmHg 78%
    15:00 +22°C° 1.1 mm 1 mps 618 mmHg 83%
    16:00 +22°C° 1.1 mm 1 mps 617 mmHg 88%
    17:00 +20°C° 0.7 mm 1 mps 617 mmHg 91%
    18:00 +19°C° 0.7 mm 1 mps 617 mmHg 93%
    19:00 +16°C° 0.7 mm 0 mps 616 mmHg 95%
    20:00 +15°C° 0.4 mm 0 mps 617 mmHg 95%
    21:00 +15°C° 0.4 mm 0 mps 617 mmHg 96%
    22:00 +15°C° 0.4 mm 0 mps 617 mmHg 96%
    23:00 +15°C° 0.4 mm 0 mps 617 mmHg 96%

    Tomorrow, 12 December, Thursday

    Time Temperature Precipitation Wind Pressure Humidity
    00:00 +15°C° 0.4 mm 0 mps 617 mmHg 97%
    01:00 +14°C° 0.4 mm 0 mps 616 mmHg 97%
    02:00 +14°C° 0.9 mm 0 mps 616 mmHg 98%
    03:00 +15°C° 0.9 mm 0 mps 616 mmHg 98%
    04:00 +15°C° 0.9 mm 0 mps 616 mmHg 98%
    05:00 +15°C° 1.6 mm 0 mps 616 mmHg 98%
    06:00 +15°C° 1.6 mm 0 mps 617 mmHg 98%
    07:00 +15°C° 1.6 mm 0 mps 617 mmHg 99%
    08:00 +16°C° 0.2 mm 0 mps 618 mmHg 95%
    09:00 +17°C° 0.2 mm 0 mps 618 mmHg 92%
    10:00 +18°C° 0.2 mm 0 mps 619 mmHg 89%
    11:00 +19°C° 0.6 mm 0 mps 619 mmHg 83%
    12:00 +21°C° 0.6 mm 0 mps 619 mmHg 78%
    13:00 +22°C° 0.6 mm 0 mps 618 mmHg 72%
    14:00 +21°C° 1 mm 0 mps 618 mmHg 79%
    15:00 +20°C° 1 mm 0 mps 617 mmHg 85%
    16:00 +21°C° 1 mm 1 mps 616 mmHg 91%
    17:00 +20°C° 0.7 mm 1 mps 616 mmHg 93%
    18:00 +17°C° 0.7 mm 0 mps 616 mmHg 94%
    19:00 +15°C° 0.7 mm 0 mps 616 mmHg 96%
    20:00 +15°C° 0.3 mm 0 mps 616 mmHg 96%
    21:00 +15°C° 0.3 mm 0 mps 617 mmHg 96%
    22:00 +15°C° 0.3 mm 0 mps 617 mmHg 97%
    23:00 +14°C° 0.4 mm 0 mps 617 mmHg 97%

    Day after tomorrow, 13 December, Friday

    Time Temperature Precipitation Wind Pressure Humidity
    00:00 +14°C° 0.4 mm 0 mps 616 mmHg 97%
    01:00 +14°C° 0.4 mm 0 mps 616 mmHg 98%
    02:00 +14°C° 0.2 mm 0 mps 616 mmHg 98%
    03:00 +14°C° 0.2 mm 0 mps 616 mmHg 98%
    04:00 +14°C° 0.2 mm 0 mps 616 mmHg 98%
    05:00 +14°C° 0.2 mm 0 mps 616 mmHg 98%
    06:00 +14°C° 0.2 mm 0 mps 616 mmHg 98%
    07:00 +14°C° 0.2 mm 0 mps 617 mmHg 97%
    08:00 +15°C° 0.2 mm 0 mps 617 mmHg 96%
    09:00 +16°C° 0.2 mm 0 mps 618 mmHg 94%
    10:00 +17°C° 0.2 mm 0 mps 618 mmHg 92%
    11:00 +18°C° 0.6 mm 0 mps 618 mmHg 86%
    12:00 +19°C° 0.6 mm 0 mps 618 mmHg 81%
    13:00 +21°C° 0.6 mm 0 mps 618 mmHg 75%
    14:00 +20°C° 0.9 mm 0 mps 617 mmHg 80%
    15:00 +20°C° 0.9 mm 0 mps 617 mmHg 86%
    16:00 +21°C° 0.9 mm 1 mps 616 mmHg 91%
    17:00 +18°C° 0.6 mm 0 mps 616 mmHg 93%
    18:00 +16°C° 0.6 mm 0 mps 616 mmHg 94%
    19:00 +15°C° 0.6 mm 0 mps 616 mmHg 95%
    20:00 +15°C° 0.1 mm 0 mps 616 mmHg 96%
    21:00 +14°C° 0.1 mm 0 mps 617 mmHg 96%
    22:00 +14°C° 0.1 mm 0 mps 617 mmHg 96%
    23:00 +14°C° 0.1 mm 0 mps 617 mmHg 96%

    14 December, Saturday

    Time Temperature Precipitation Wind Pressure Humidity
    00:00 +14°C° 0.1 mm 0 mps 616 mmHg 97%
    01:00 +14°C° 0.1 mm 0 mps 616 mmHg 97%
    02:00 +14°C° 0.2 mm 0 mps 616 mmHg 97%
    03:00 +14°C° 0.2 mm 0 mps 616 mmHg 97%
    04:00 +13°C° 0.2 mm 0 mps 616 mmHg 98%
    05:00 +14°C° 0.2 mm 0 mps 616 mmHg 97%
    06:00 +14°C° 0.2 mm 0 mps 616 mmHg 97%
    07:00 +14°C° 0.2 mm 0 mps 617 mmHg 97%
    08:00 +15°C° 0.1 mm 0 mps 618 mmHg 92%
    09:00 +16°C° 0.1 mm 0 mps 618 mmHg 87%
    10:00 +18°C° 0.1 mm 0 mps 619 mmHg 83%
    11:00 +19°C° 0.2 mm 0 mps 619 mmHg 75%
    12:00 +21°C° 0.2 mm 0 mps 619 mmHg 68%
    13:00 +23°C° 0.2 mm 0 mps 619 mmHg 60%
    14:00 +22°C° 0.5 mm 0 mps 618 mmHg 65%
    15:00 +21°C° 0.5 mm 0 mps 618 mmHg 71%
    16:00 +22°C° 0.5 mm 1 mps 617 mmHg 76%
    17:00 +21°C° 0.7 mm 1 mps 617 mmHg 82%
    18:00 +17°C° 0.7 mm 0 mps 616 mmHg 89%
    19:00 +15°C° 0.7 mm 0 mps 616 mmHg 96%
    20:00 +15°C° 0.5 mm 0 mps 617 mmHg 96%
    21:00 +15°C° 0.5 mm 0 mps 617 mmHg 96%
    22:00 +15°C° 0.5 mm 0 mps 618 mmHg 96%
    23:00 +15°C° 0.4 mm 0 mps 617 mmHg 96%

    15 December, Sunday

    Time Temperature Precipitation Wind Pressure Humidity
    00:00 +15°C° 0.4 mm 0 mps 617 mmHg 97%
    01:00 +15°C° 0.4 mm 0 mps 617 mmHg 97%
    02:00 +14°C° 0.3 mm 0 mps 617 mmHg 97%
    03:00 +14°C° 0.3 mm 0 mps 616 mmHg 97%
    04:00 +14°C° 0.3 mm 0 mps 616 mmHg 97%
    05:00 +14°C° 0 mm 0 mps 617 mmHg 97%
    06:00 +14°C° 0 mm 0 mps 617 mmHg 97%
    07:00 +14°C° 0 mm 0 mps 617 mmHg 96%
    08:00 +16°C° 0 mm 0 mps 618 mmHg 87%
    09:00 +18°C° 0 mm 0 mps 619 mmHg 78%
    10:00 +20°C° 0 mm 0 mps 620 mmHg 69%
    11:00 +22°C° 0.1 mm 0 mps 620 mmHg 62%
    12:00 +23°C° 0.1 mm 0 mps 620 mmHg 56%
    13:00 +26°C° 0.1 mm 1 mps 620 mmHg 49%
    14:00 +24°C° 0.3 mm 0 mps 619 mmHg 53%
    15:00 +23°C° 0.3 mm 0 mps 618 mmHg 57%
    16:00 +22°C° 0.3 mm 0 mps 618 mmHg 61%
    17:00 +20°C° 0.3 mm 0 mps 617 mmHg 71%
    18:00 +18°C° 0.3 mm 0 mps 617 mmHg 81%
    19:00 +18°C° 0.3 mm 1 mps 617 mmHg 90%
    20:00 +18°C° 0.3 mm 1 mps 617 mmHg 92%
    21:00 +15°C° 0.3 mm 0 mps 617 mmHg 94%
    22:00 +15°C° 0.3 mm 0 mps 617 mmHg 96%
    23:00 +14°C° 0.3 mm 0 mps 617 mmHg 96%

    16 December, Monday

    Time Temperature Precipitation Wind Pressure Humidity
    00:00 +14°C° 0.3 mm 0 mps 617 mmHg 96%
    01:00 +14°C° 0.3 mm 0 mps 617 mmHg 97%
    02:00 +14°C° 0.1 mm 0 mps 616 mmHg 97%
    03:00 +14°C° 0.1 mm 0 mps 616 mmHg 97%
    04:00 +14°C° 0.1 mm 0 mps 616 mmHg 97%
    05:00 +14°C° 0 mm 0 mps 616 mmHg 97%
    06:00 +14°C° 0 mm 0 mps 617 mmHg 96%
    07:00 +14°C° 0 mm 0 mps 617 mmHg 96%
    08:00 +16°C° 0 mm 0 mps 618 mmHg 87%
    09:00 +18°C° 0 mm 0 mps 619 mmHg 79%
    10:00 +21°C° 0 mm 0 mps 620 mmHg 70%
    11:00 +22°C° 0.2 mm 0 mps 620 mmHg 65%
    12:00 +23°C° 0.2 mm 0 mps 619 mmHg 60%
    13:00 +24°C° 0.2 mm 0 mps 619 mmHg 55%
    14:00 +24°C° 0.4 mm 0 mps 619 mmHg 58%
    15:00 +23°C° 0.4 mm 0 mps 618 mmHg 60%
    16:00 +23°C° 0.4 mm 0 mps 617 mmHg 63%
    17:00 +20°C° 0.4 mm 0 mps 617 mmHg 73%
    18:00 +20°C° 0.4 mm 1 mps 616 mmHg 83%
    19:00 +18°C° 0.4 mm 1 mps 616 mmHg 94%
    20:00 +18°C° 0.3 mm 1 mps 616 mmHg 94%
    21:00 +15°C° 0.3 mm 0 mps 616 mmHg 95%
    22:00 +15°C° 0.3 mm 0 mps 617 mmHg 96%
    23:00 +15°C° 0.2 mm 0 mps 617 mmHg 96%
    Show more